This is the latest recevied weather packets stored in our database for station/object KO4T-4. If no packets are shown the sender has not sent any weather packets the latest 10 day(s).
| Time | Temp. | Humidity | Pressure | Rain* | Wind** | Luminosity | Snow |
|---|---|---|---|---|---|---|---|
| 1777620004 | 11.11° C | 68% | 1013.7 hPa | 0 mm | - | - | - |
| 1777619703 | 10.56° C | 71% | 1013.7 hPa | 0 mm | - | - | - |
| 1777619404 | 10.56° C | 72% | 1013.6 hPa | 0 mm | - | - | - |
| 1777619103 | 10° C | 75% | 1013.6 hPa | 0 mm | - | - | - |
| 1777618804 | 10° C | 76% | 1013.6 hPa | 0 mm | - | - | - |
| 1777618504 | 10° C | 76% | 1013.7 hPa | 0 mm | - | - | - |
| 1777618204 | 10° C | 75% | 1013.7 hPa | 0 mm | - | - | - |
| 1777617904 | 10° C | 78% | 1013.9 hPa | 0 mm | - | - | - |
| 1777617604 | 10° C | 76% | 1014 hPa | 0 mm | - | - | - |
| 1777617304 | 10.56° C | 76% | 1014 hPa | 0 mm | - | - | - |
| 1777617004 | 10.56° C | 77% | 1014 hPa | 0 mm | - | - | - |
| 1777616704 | 10.56° C | 75% | 1014 hPa | 0 mm | - | - | - |
| 1777616404 | 10.56° C | 74% | 1014 hPa | 0 mm | - | - | - |
| 1777616103 | 10.56° C | 76% | 1014.2 hPa | 0 mm | - | - | - |
| 1777615804 | 10.56° C | 77% | 1014 hPa | 0 mm | - | - | - |
| 1777615504 | 10.56° C | 75% | 1014 hPa | 0 mm | - | - | - |
| 1777615204 | 10.56° C | 74% | 1014 hPa | 0 mm | - | - | - |
| 1777614903 | 10.56° C | 76% | 1014.1 hPa | 0 mm | - | - | - |
| 1777614604 | 10.56° C | 74% | 1014 hPa | 0 mm | - | - | - |
| 1777614303 | 10° C | 76% | 1014 hPa | 0 mm | - | - | - |
| 1777614004 | 10° C | 76% | 1014 hPa | 0 mm | - | - | - |
| 1777613704 | 10° C | 76% | 1014 hPa | 0 mm | - | - | - |
| 1777613403 | 10° C | 75% | 1014.2 hPa | 0 mm | - | - | - |
| 1777613104 | 10° C | 77% | 1014.1 hPa | 0 mm | - | - | - |
| 1777612803 | 9.44° C | 78% | 1014 hPa | 0 mm | - | - | - |
* Rain latest hour (hover to see other rain measurements)
** Current wind speed in m/s (hover to see current wind gust speed)